EN

Hourly Weather Wiktoria

Today, 4 December, Friday

Time Temperature Precipitation Wind Pressure Humidity
00:00 +16°C° 0 mm 1 mps 749 mmHg 36%
01:00 +15°C° 0 mm 1 mps 749 mmHg 38%
02:00 +14°C° 0 mm 1 mps 749 mmHg 41%
03:00 +14°C° 0 mm 1 mps 749 mmHg 43%
04:00 +13°C° 0 mm 1 mps 749 mmHg 46%
05:00 +15°C° 0 mm 1 mps 749 mmHg 44%
06:00 +16°C° 0 mm 1 mps 749 mmHg 42%
07:00 +19°C° 0 mm 1 mps 750 mmHg 39%
08:00 +20°C° 0 mm 2 mps 750 mmHg 34%
09:00 +24°C° 0 mm 3 mps 750 mmHg 28%
10:00 +26°C° 0 mm 3 mps 750 mmHg 23%
11:00 +27°C° 0 mm 4 mps 749 mmHg 20%
12:00 +29°C° 0 mm 4 mps 749 mmHg 18%
13:00 +30°C° 0 mm 4 mps 749 mmHg 16%
14:00 +30°C° 0 mm 4 mps 748 mmHg 15%
15:00 +30°C° 0 mm 4 mps 747 mmHg 15%
16:00 +32°C° 0 mm 4 mps 747 mmHg 14%
17:00 +29°C° 0 mm 3 mps 747 mmHg 20%
18:00 +26°C° 0 mm 3 mps 747 mmHg 25%
19:00 +24°C° 0 mm 3 mps 747 mmHg 31%
20:00 +21°C° 0 mm 3 mps 747 mmHg 35%
21:00 +19°C° 0 mm 3 mps 747 mmHg 40%
22:00 +17°C° 0 mm 3 mps 747 mmHg 45%
23:00 +17°C° 0 mm 3 mps 747 mmHg 46%

Tomorrow, 5 December, Saturday

Time Temperature Precipitation Wind Pressure Humidity
00:00 +16°C° 0 mm 2 mps 746 mmHg 48%
01:00 +15°C° 0 mm 2 mps 746 mmHg 49%
02:00 +15°C° 0 mm 2 mps 745 mmHg 48%
03:00 +15°C° 0 mm 2 mps 745 mmHg 47%
04:00 +14°C° 0 mm 3 mps 744 mmHg 46%
05:00 +15°C° 0 mm 4 mps 744 mmHg 42%
06:00 +17°C° 0 mm 5 mps 743 mmHg 38%
07:00 +20°C° 0 mm 6 mps 743 mmHg 34%
08:00 +23°C° 0 mm 7 mps 742 mmHg 28%
09:00 +27°C° 0 mm 8 mps 741 mmHg 23%
10:00 +31°C° 0 mm 8 mps 740 mmHg 18%
11:00 +32°C° 0 mm 9 mps 739 mmHg 17%
12:00 +34°C° 0 mm 10 mps 738 mmHg 17%
13:00 +36°C° 0 mm 11 mps 737 mmHg 16%
14:00 +31°C° 0.3 mm 9 mps 737 mmHg 37%
15:00 +24°C° 0.3 mm 7 mps 736 mmHg 58%
16:00 +19°C° 0.3 mm 5 mps 736 mmHg 78%
17:00 +20°C° 0.3 mm 6 mps 736 mmHg 78%
18:00 +20°C° 0.3 mm 6 mps 735 mmHg 77%
19:00 +20°C° 0.3 mm 7 mps 735 mmHg 77%
20:00 +19°C° 0.1 mm 6 mps 736 mmHg 75%
21:00 +16°C° 0.1 mm 5 mps 737 mmHg 73%
22:00 +14°C° 0.1 mm 5 mps 738 mmHg 72%
23:00 +13°C° 0 mm 4 mps 738 mmHg 72%

Day after tomorrow, 6 December, Sunday

Time Temperature Precipitation Wind Pressure Humidity
00:00 +12°C° 0 mm 4 mps 738 mmHg 73%
01:00 +11°C° 0 mm 3 mps 738 mmHg 74%
02:00 +10°C° 0 mm 3 mps 738 mmHg 76%
03:00 +10°C° 0 mm 3 mps 739 mmHg 78%
04:00 +9°C° 0 mm 3 mps 739 mmHg 80%
05:00 +11°C° 0 mm 4 mps 740 mmHg 72%
06:00 +12°C° 0 mm 5 mps 740 mmHg 65%
07:00 +13°C° 0 mm 6 mps 741 mmHg 58%
08:00 +14°C° 0 mm 7 mps 741 mmHg 55%
09:00 +14°C° 0 mm 7 mps 741 mmHg 51%
10:00 +15°C° 0 mm 7 mps 741 mmHg 48%
11:00 +16°C° 0 mm 8 mps 741 mmHg 44%
12:00 +16°C° 0 mm 8 mps 741 mmHg 40%
13:00 +17°C° 0 mm 8 mps 741 mmHg 37%
14:00 +17°C° 0 mm 8 mps 741 mmHg 37%
15:00 +17°C° 0 mm 8 mps 741 mmHg 37%
16:00 +17°C° 0 mm 8 mps 741 mmHg 37%
17:00 +16°C° 0 mm 7 mps 741 mmHg 41%
18:00 +16°C° 0 mm 5 mps 741 mmHg 45%
19:00 +15°C° 0 mm 4 mps 742 mmHg 49%
20:00 +14°C° 0 mm 4 mps 742 mmHg 52%
21:00 +14°C° 0 mm 3 mps 742 mmHg 55%
22:00 +13°C° 0 mm 3 mps 742 mmHg 57%
23:00 +12°C° 0.1 mm 3 mps 742 mmHg 63%

7 December, Monday

Time Temperature Precipitation Wind Pressure Humidity
00:00 +12°C° 0.1 mm 3 mps 741 mmHg 68%
01:00 +12°C° 0.1 mm 3 mps 741 mmHg 74%
02:00 +11°C° 0.1 mm 3 mps 741 mmHg 77%
03:00 +11°C° 0.1 mm 3 mps 741 mmHg 79%
04:00 +10°C° 0.1 mm 4 mps 741 mmHg 82%
05:00 +11°C° 0.2 mm 4 mps 741 mmHg 81%
06:00 +11°C° 0.2 mm 4 mps 742 mmHg 80%
07:00 +12°C° 0.2 mm 5 mps 742 mmHg 80%
08:00 +13°C° 0 mm 5 mps 742 mmHg 66%
09:00 +15°C° 0 mm 5 mps 743 mmHg 52%
10:00 +17°C° 0 mm 6 mps 743 mmHg 39%
11:00 +17°C° 0 mm 6 mps 743 mmHg 37%
12:00 +18°C° 0 mm 7 mps 742 mmHg 36%
13:00 +18°C° 0 mm 7 mps 742 mmHg 34%
14:00 +17°C° 0 mm 7 mps 742 mmHg 35%
15:00 +17°C° 0 mm 7 mps 742 mmHg 36%
16:00 +17°C° 0 mm 7 mps 743 mmHg 37%
17:00 +16°C° 0 mm 7 mps 743 mmHg 41%
18:00 +15°C° 0 mm 6 mps 744 mmHg 45%
19:00 +14°C° 0 mm 6 mps 744 mmHg 48%
20:00 +12°C° 0 mm 5 mps 745 mmHg 53%
21:00 +11°C° 0 mm 4 mps 746 mmHg 58%
22:00 +9°C° 0 mm 3 mps 746 mmHg 63%
23:00 +9°C° 0 mm 3 mps 746 mmHg 67%

8 December, Tuesday

Time Temperature Precipitation Wind Pressure Humidity
00:00 +8°C° 0 mm 3 mps 747 mmHg 71%
01:00 +7°C° 0 mm 3 mps 747 mmHg 74%
02:00 +7°C° 0 mm 3 mps 747 mmHg 78%
03:00 +5°C° 0 mm 3 mps 747 mmHg 83%
04:00 +5°C° 0 mm 3 mps 748 mmHg 87%
05:00 +7°C° 0 mm 4 mps 749 mmHg 79%
06:00 +9°C° 0 mm 5 mps 749 mmHg 70%
07:00 +10°C° 0 mm 6 mps 750 mmHg 62%
08:00 +13°C° 0 mm 6 mps 750 mmHg 54%
09:00 +15°C° 0 mm 6 mps 751 mmHg 45%
10:00 +17°C° 0 mm 6 mps 751 mmHg 37%
11:00 +19°C° 0 mm 6 mps 751 mmHg 35%
12:00 +20°C° 0 mm 6 mps 751 mmHg 33%
13:00 +21°C° 0 mm 6 mps 751 mmHg 30%
14:00 +21°C° 0 mm 6 mps 750 mmHg 30%
15:00 +21°C° 0 mm 6 mps 750 mmHg 30%
16:00 +21°C° 0 mm 6 mps 750 mmHg 29%
17:00 +20°C° 0 mm 6 mps 750 mmHg 33%
18:00 +19°C° 0 mm 5 mps 751 mmHg 37%
19:00 +16°C° 0 mm 5 mps 751 mmHg 40%
20:00 +14°C° 0 mm 5 mps 752 mmHg 47%
21:00 +13°C° 0 mm 4 mps 752 mmHg 54%
22:00 +11°C° 0 mm 4 mps 753 mmHg 60%
23:00 +10°C° 0 mm 4 mps 753 mmHg 65%

9 December, Wednesday

Time Temperature Precipitation Wind Pressure Humidity
00:00 +10°C° 0 mm 4 mps 753 mmHg 70%
01:00 +8°C° 0 mm 4 mps 753 mmHg 75%
02:00 +8°C° 0 mm 3 mps 753 mmHg 78%
03:00 +8°C° 0 mm 3 mps 752 mmHg 81%
04:00 +7°C° 0 mm 3 mps 752 mmHg 84%
05:00 +9°C° 0 mm 2 mps 753 mmHg 76%
06:00 +10°C° 0 mm 2 mps 753 mmHg 68%
07:00 +13°C° 0 mm 2 mps 753 mmHg 61%
08:00 +16°C° 0 mm 1 mps 753 mmHg 51%
09:00 +20°C° 0 mm 1 mps 753 mmHg 42%
10:00 +23°C° 0 mm 1 mps 753 mmHg 33%
11:00 +24°C° 0 mm 1 mps 753 mmHg 30%
12:00 +26°C° 0 mm 2 mps 752 mmHg 28%
13:00 +27°C° 0 mm 2 mps 752 mmHg 25%
14:00 +28°C° 0 mm 3 mps 752 mmHg 26%
15:00 +28°C° 0 mm 4 mps 751 mmHg 27%
16:00 +29°C° 0 mm 4 mps 751 mmHg 27%
17:00 +27°C° 0 mm 5 mps 751 mmHg 34%
18:00 +24°C° 0 mm 6 mps 751 mmHg 40%
19:00 +22°C° 0 mm 6 mps 752 mmHg 47%
20:00 +20°C° 0 mm 6 mps 752 mmHg 54%
21:00 +17°C° 0 mm 6 mps 753 mmHg 62%
22:00 +15°C° 0 mm 6 mps 753 mmHg 69%
23:00 +14°C° 0 mm 5 mps 753 mmHg 71%
Show more

We Need Your Consent

Meteoprog and our Service Providers may store and access personal data such as cookies, device identifiers or other similar technologies on your device and process such data to personalise content and ads, as well as provide social media features and to analyse the traffic.

  • Store and/or access information on your device

    Cookies, device identifiers or other information can be stored or accessed on your device for the purposes indicated above.

  • Personalised ads and content, ad and content measurement, audience insights, and products development

    Ads and content can be personalised based on a profile. More data can be added to better personalise ads and content. Ad and content performance can be measured. Insights about the audience who saw the ads and content can be derived. Such data can be used to develop or improve user’s experience, systems and software.

By clicking ‘I Agree’ you will allow the use of indicated cookies, device identifiers, web beacons or other similar technologies. Your settings can be changed in the browser on your device.

For certain purposes, legitimate interests may be relied on, rather than consent. You can read more about this in our Privacy and Cookie Policy.